This is the latest recevied weather packets stored in our database for station/object OH6GKW. If no packets are shown the sender has not sent any weather packets the latest 10 day(s).
| Time | Temp. | Humidity | Pressure | Rain* | Wind** | Luminosity | Snow |
|---|---|---|---|---|---|---|---|
| 1778008437 | 5.56° C | 55% | 1000.2 hPa | 0.51 mm | - | 0 W/m² | - |
| 1778008111 | 6.11° C | 54% | 1000.2 hPa | 0.51 mm | - | 0 W/m² | - |
| 1778007824 | 6.11° C | 54% | 1000.2 hPa | 0.51 mm | - | 0 W/m² | - |
| 1778007511 | 6.11° C | 53% | 1000.1 hPa | 0.51 mm | - | 5 W/m² | - |
| 1778007224 | 6.11° C | 53% | 1000.1 hPa | 0.51 mm | - | 5 W/m² | - |
| 1778006915 | 6.11° C | 53% | 1000.1 hPa | 0.51 mm | - | 7 W/m² | - |
| 1778006639 | 6.67° C | 52% | 999.8 hPa | 0.51 mm | - | 11 W/m² | - |
| 1778006338 | 6.67° C | 52% | 999.8 hPa | 0.51 mm | - | 12 W/m² | - |
| 1778006033 | 6.67° C | 51% | 999.8 hPa | 0.51 mm | - | 19 W/m² | - |
| 1778005721 | 6.67° C | 51% | 999.6 hPa | 0.51 mm | - | 25 W/m² | - |
| 1778005411 | 7.22° C | 50% | 999.6 hPa | 0.51 mm | - | 37 W/m² | - |
| 1778005127 | 7.22° C | 50% | 999.6 hPa | 0.51 mm | - | 46 W/m² | - |
| 1778004816 | 7.22° C | 49% | 999.6 hPa | 0.51 mm | - | 55 W/m² | - |
| 1778004522 | 7.22° C | 50% | 999.6 hPa | 0.51 mm | - | 62 W/m² | - |
| 1778003937 | 7.22° C | 50% | 999.4 hPa | 0.51 mm | - | 91 W/m² | - |
| 1778003632 | 7.22° C | 50% | 999.4 hPa | 0.51 mm | - | 51 W/m² | - |
| 1778003323 | 7.78° C | 50% | 999.4 hPa | 0.51 mm | - | 55 W/m² | - |
| 1778003016 | 7.78° C | 50% | 999.4 hPa | 0.51 mm | - | 83 W/m² | - |
| 1778002728 | 7.78° C | 50% | 999.4 hPa | 0.51 mm | - | 116 W/m² | - |
| 1778002422 | 7.78° C | 51% | 999.4 hPa | 0.51 mm | - | 153 W/m² | - |
| 1778002112 | 7.78° C | 51% | 999.2 hPa | 0.51 mm | - | 167 W/m² | - |
| 1778001824 | 7.78° C | 51% | 999.2 hPa | 0.51 mm | - | 153 W/m² | - |
| 1778001515 | 7.22° C | 51% | 999.2 hPa | 0.51 mm | - | 187 W/m² | - |
| 1778001210 | 7.22° C | 51% | 999.1 hPa | 0.51 mm | - | 99 W/m² | - |
| 1778000933 | 7.22° C | 52% | 999.1 hPa | 0.51 mm | - | 84 W/m² | - |
* Rain since midnight (hover to see other rain measurements)
** Current wind speed in m/s (hover to see current wind gust speed)